N787RA -TJBQ

Flight info

Callsign N787RA
Flight time N/A
Altitude VFR
Route
Aircraft C200/L-DOV/C

Departure

Time N/A
Airport -

Arrival

Time 2026-05-07 00:41
Airport Rafael Hernández International Airport (TJBQ)
Time Latitude Longitude Altitude Speed Heading
2026-05-07 00:06 18.40947 -65.85291 7495 ft 162 kts 13°
2026-05-07 00:07 18.42017 -65.85548 7500 ft 164 kts 321°
2026-05-07 00:07 18.42515 -65.86581 7390 ft 164 kts 273°
2026-05-07 00:07 18.42533 -65.87766 7279 ft 161 kts 270°
2026-05-07 00:07 18.42565 -65.88942 7164 ft 160 kts 272°
2026-05-07 00:08 18.42657 -65.90108 7048 ft 159 kts 275°
2026-05-07 00:08 18.42807 -65.91268 6934 ft 163 kts 278°
2026-05-07 00:08 18.42995 -65.92474 6828 ft 170 kts 278°
2026-05-07 00:08 18.43190 -65.93721 6734 ft 174 kts 279°
2026-05-07 00:09 18.43378 -65.94966 6617 ft 175 kts 278°
2026-05-07 00:09 18.43568 -65.96243 6516 ft 178 kts 278°
2026-05-07 00:09 18.43760 -65.97525 6511 ft 176 kts 278°
2026-05-07 00:09 18.43949 -65.98791 6507 ft 174 kts 278°
2026-05-07 00:10 18.44137 -66.00048 6503 ft 173 kts 278°
2026-05-07 00:10 18.44325 -66.01304 6502 ft 173 kts 278°
2026-05-07 00:10 18.44512 -66.02551 6501 ft 172 kts 278°
2026-05-07 00:10 18.44700 -66.03799 6504 ft 172 kts 278°
2026-05-07 00:11 18.44823 -66.04624 6500 ft 172 kts 278°
2026-05-07 00:11 18.45250 -66.07470 6471 ft 172 kts 279°
2026-05-07 00:11 18.45438 -66.08718 6471 ft 172 kts 278°
2026-05-07 00:12 18.45625 -66.09964 6473 ft 172 kts 279°
2026-05-07 00:12 18.45810 -66.11202 6493 ft 171 kts 278°
2026-05-07 00:12 18.45995 -66.12443 6492 ft 172 kts 278°
2026-05-07 00:12 18.46178 -66.13685 6492 ft 172 kts 279°
2026-05-07 00:13 18.46361 -66.14915 6495 ft 172 kts 279°
2026-05-07 00:13 18.46546 -66.16161 6495 ft 172 kts 278°
2026-05-07 00:13 18.46732 -66.17408 6495 ft 172 kts 278°
2026-05-07 00:13 18.46918 -66.18650 6495 ft 172 kts 279°
2026-05-07 00:14 18.47104 -66.19895 6495 ft 172 kts 278°
2026-05-07 00:14 18.47290 -66.21142 6494 ft 172 kts 279°
2026-05-07 00:14 18.47476 -66.22389 6494 ft 172 kts 279°
2026-05-07 00:14 18.47661 -66.23636 6494 ft 172 kts 279°
2026-05-07 00:15 18.47848 -66.24884 6491 ft 172 kts 279°
2026-05-07 00:15 18.48033 -66.26132 6494 ft 172 kts 279°
2026-05-07 00:15 18.48218 -66.27378 6494 ft 172 kts 279°
2026-05-07 00:15 18.48403 -66.28620 6495 ft 172 kts 279°
2026-05-07 00:16 18.48586 -66.29845 6494 ft 171 kts 279°
2026-05-07 00:16 18.48772 -66.31088 6494 ft 171 kts 279°
2026-05-07 00:16 18.48957 -66.32330 6496 ft 171 kts 279°
2026-05-07 00:16 18.49143 -66.33569 6496 ft 171 kts 279°
2026-05-07 00:17 18.49329 -66.34809 6496 ft 171 kts 279°
2026-05-07 00:17 18.49510 -66.36049 6496 ft 171 kts 277°
2026-05-07 00:17 18.49584 -66.37303 6497 ft 171 kts 272°
2026-05-07 00:17 18.49626 -66.38561 6498 ft 171 kts 272°
2026-05-07 00:18 18.49667 -66.39809 6497 ft 169 kts 272°
2026-05-07 00:18 18.49707 -66.41043 6497 ft 168 kts 272°
2026-05-07 00:18 18.49747 -66.42269 6498 ft 167 kts 272°
2026-05-07 00:18 18.49785 -66.43473 6499 ft 166 kts 272°
2026-05-07 00:19 18.49825 -66.44691 6501 ft 166 kts 272°
2026-05-07 00:19 18.49863 -66.45907 6503 ft 166 kts 272°
2026-05-07 00:19 18.49902 -66.47124 6503 ft 166 kts 272°
2026-05-07 00:19 18.49942 -66.48339 6503 ft 166 kts 272°
2026-05-07 00:20 18.49982 -66.49554 6502 ft 166 kts 272°
2026-05-07 00:20 18.50022 -66.50768 6501 ft 166 kts 272°
2026-05-07 00:20 18.50063 -66.51982 6501 ft 166 kts 272°
2026-05-07 00:20 18.50102 -66.53196 6500 ft 166 kts 272°
2026-05-07 00:21 18.50142 -66.54412 6504 ft 166 kts 272°
2026-05-07 00:21 18.50181 -66.55626 6503 ft 166 kts 272°
2026-05-07 00:21 18.50220 -66.56842 6503 ft 166 kts 272°
2026-05-07 00:21 18.50259 -66.58041 6506 ft 166 kts 272°
2026-05-07 00:22 18.50294 -66.59254 6506 ft 166 kts 272°
2026-05-07 00:22 18.50330 -66.60470 6505 ft 166 kts 272°
2026-05-07 00:22 18.50368 -66.61686 6505 ft 166 kts 272°
2026-05-07 00:22 18.50403 -66.62901 6505 ft 166 kts 272°
2026-05-07 00:23 18.50438 -66.64113 6502 ft 166 kts 272°
2026-05-07 00:23 18.50473 -66.65342 6371 ft 173 kts 272°
2026-05-07 00:23 18.50472 -66.66643 6132 ft 180 kts 268°
2026-05-07 00:23 18.50429 -66.67959 5892 ft 179 kts 268°
2026-05-07 00:24 18.50381 -66.69273 5652 ft 179 kts 268°
2026-05-07 00:24 18.50332 -66.70586 5411 ft 179 kts 268°
2026-05-07 00:24 18.50285 -66.71896 5167 ft 179 kts 268°
2026-05-07 00:24 18.50240 -66.73203 4934 ft 178 kts 268°
2026-05-07 00:25 18.50193 -66.74508 4690 ft 178 kts 268°
2026-05-07 00:25 18.50150 -66.75793 4507 ft 175 kts 268°
2026-05-07 00:25 18.50108 -66.77081 4508 ft 173 kts 268°
2026-05-07 00:25 18.50068 -66.78324 4505 ft 171 kts 268°
2026-05-07 00:26 18.50027 -66.79577 4505 ft 171 kts 268°
2026-05-07 00:26 18.49985 -66.80826 4505 ft 171 kts 268°
2026-05-07 00:26 18.49942 -66.82074 4505 ft 170 kts 268°
2026-05-07 00:26 18.49901 -66.83321 4506 ft 170 kts 268°
2026-05-07 00:27 18.50007 -66.84554 4486 ft 171 kts 283°
2026-05-07 00:27 18.50313 -66.85787 4367 ft 176 kts 285°
2026-05-07 00:27 18.50630 -66.87041 4250 ft 178 kts 285°
2026-05-07 00:27 18.50951 -66.88309 4133 ft 180 kts 285°
2026-05-07 00:28 18.51276 -66.89582 4012 ft 180 kts 285°
2026-05-07 00:28 18.51591 -66.90864 3893 ft 181 kts 285°
2026-05-07 00:28 18.51894 -66.92152 3777 ft 181 kts 285°
2026-05-07 00:28 18.52193 -66.93450 3657 ft 182 kts 285°
2026-05-07 00:29 18.52491 -66.94744 3537 ft 180 kts 285°
2026-05-07 00:29 18.52768 -66.95967 3412 ft 168 kts 285°
2026-05-07 00:30 18.53513 -66.99416 2990 ft 159 kts 282°
2026-05-07 00:30 18.53577 -67.00206 2892 ft 160 kts 272°
2026-05-07 00:30 18.53403 -67.02791 2310 ft 160 kts 270°
2026-05-07 00:31 18.53286 -67.03926 2056 ft 156 kts 260°
2026-05-07 00:31 18.52980 -67.05000 1944 ft 156 kts 252°
2026-05-07 00:31 18.52626 -67.06131 1799 ft 171 kts 253°
2026-05-07 00:31 18.52253 -67.07346 1648 ft 173 kts 255°
2026-05-07 00:32 18.51930 -67.08535 1407 ft 164 kts 257°
2026-05-07 00:32 18.51666 -67.09667 1140 ft 155 kts 260°
2026-05-07 00:32 18.51459 -67.10729 1078 ft 138 kts 262°
2026-05-07 00:32 18.51341 -67.11689 1077 ft 126 kts 267°
2026-05-07 00:33 18.51255 -67.12582 1074 ft 120 kts 268°
2026-05-07 00:33 18.51189 -67.13441 1034 ft 115 kts 269°
2026-05-07 00:33 18.51160 -67.14251 1082 ft 110 kts 272°
2026-05-07 00:33 18.51155 -67.15124 851 ft 126 kts 272°
2026-05-07 00:34 18.51106 -67.16058 684 ft 128 kts 256°
2026-05-07 00:34 18.50598 -67.16748 735 ft 120 kts 205°
2026-05-07 00:34 18.49815 -67.16827 886 ft 109 kts 164°
2026-05-07 00:34 18.49091 -67.16659 819 ft 102 kts 156°
2026-05-07 00:35 18.48637 -67.16155 767 ft 97 kts 102°
2026-05-07 00:35 18.48705 -67.15468 524 ft 96 kts 66°
2026-05-07 00:35 18.48899 -67.14862 404 ft 76 kts 67°
2026-05-07 00:35 18.49050 -67.14382 280 ft 64 kts 68°
2026-05-07 00:36 18.49181 -67.13945 238 ft 59 kts 71°
2026-05-07 00:36 18.49300 -67.13555 233 ft 61 kts 73°
2026-05-07 00:36 18.49437 -67.13088 325 ft 68 kts 68°
2026-05-07 00:36 18.49598 -67.12620 461 ft 71 kts 65°
2026-05-07 00:37 18.49823 -67.12148 638 ft 74 kts 57°
2026-05-07 00:37 18.50073 -67.11706 865 ft 69 kts 55°
2026-05-07 00:37 18.50128 -67.11249 1028 ft 71 kts 116°
2026-05-07 00:37 18.49656 -67.10940 1090 ft 85 kts 152°
2026-05-07 00:38 18.49065 -67.10789 1186 ft 95 kts 175°
2026-05-07 00:38 18.48433 -67.11117 1238 ft 109 kts 229°
2026-05-07 00:38 18.48105 -67.11861 1218 ft 115 kts 255°
2026-05-07 00:38 18.47833 -67.12653 1240 ft 115 kts 251°
2026-05-07 00:39 18.47533 -67.13451 1197 ft 118 kts 249°
2026-05-07 00:39 18.47210 -67.14211 1059 ft 110 kts 247°
2026-05-07 00:39 18.46875 -67.14916 987 ft 105 kts 256°
2026-05-07 00:39 18.47019 -67.15555 965 ft 88 kts 321°
2026-05-07 00:40 18.47581 -67.15763 785 ft 86 kts 356°
2026-05-07 00:40 18.48134 -67.15776 576 ft 80 kts
2026-05-07 00:40 18.48613 -67.15512 483 ft 75 kts 50°
2026-05-07 00:40 18.48833 -67.15063 399 ft 68 kts 62°
2026-05-07 00:41 18.48995 -67.14563 330 ft 76 kts 68°
2026-05-07 00:41 18.49157 -67.14025 252 ft 75 kts 68°
2026-05-07 00:41 18.49296 -67.13559 235 ft 56 kts 72°
2026-05-07 00:41 18.49385 -67.13264 233 ft 34 kts 72°
2026-05-07 00:42 18.49458 -67.13027 233 ft 37 kts 72°
2026-05-07 00:42 18.49532 -67.12784 230 ft 28 kts 73°
2026-05-07 00:42 18.49579 -67.12645 230 ft 16 kts 56°
2026-05-07 00:42 18.49673 -67.12619 232 ft 14 kts 315°
2026-05-07 00:43 18.49667 -67.12727 235 ft 10 kts 280°
2026-05-07 00:43 18.49729 -67.12767 239 ft 13 kts 343°
2026-05-07 00:43 18.49822 -67.12798 240 ft 14 kts 342°
2026-05-07 00:43 18.49897 -67.12848 241 ft 11 kts 307°
2026-05-07 00:44 18.49899 -67.12908 241 ft 6 kts 249°
2026-05-07 00:44 18.49898 -67.12910 241 ft 0 kts 249°